Regional Weather Roundup
Issued by NWS Wakefield, VA

Home | Current Version | Previous Version | Graphics & Text | Print | Product List | Glossary On
Versions: 1 2 3 4 5 6 7 8 9 10 11 12 13 14 15 16 17 18 19 20 21 22 23 24 25 26 27 28 29 30 31 32 33 34 35 36 37 38 39 40 41 42 43 44 45 46 47 48 49 50
000
ASUS41 KAKQ 181415
RWRAKQ

REGIONAL WEATHER ROUNDUP
NATIONAL WEATHER SERVICE WAKEFIELD VA
900 AM EST SUN FEB 18 2018

Note: "fair" indicates few or no clouds below 12,000 feet with no
significant weather and/or obstructions to visibility. * = Denotes
station may not report precipitation (e.g., rain,snow,etc.),
thunder or fog.

VAZ042-051-052>054-056-181500-
NORTHERN VIRGINIA

CITY           SKY/WX    TMP DP  RH WIND       PRES   REMARKS
WASH NATIONAL  CLOUDY    37  35  92 S5        30.35R
DULLES         CLOUDY    34  33  96 SW8       30.33R
FORT BELVOIR   CLOUDY    37  36  93 S5        30.36R
QUANTICO       CLOUDY    38  38 100 NW6       30.37R FOG
FREDERICKSBRG* FAIR      38  38 100 N3        30.35R
STAFFORD*      FOG       37  37 100 CALM      30.39R VSB 1
WARRENTON      FOG       35  33  91 CALM      30.35R VSB 1/2
CULPEPER*      FOG       33  32  96 CALM      30.36R VSB<1/4
MANASSAS*      CLOUDY    35  34  96 SW7       30.35R
LEESBURG*      CLOUDY    32  32 100 NW6       30.33R
WINCHESTER     CLOUDY    37  28  70 NW12      30.33R
FRONT ROYAL*   PTSUNNY   37  30  75 NW10      30.31R
LURAY*         PTSUNNY   41  30  65 NW8       30.31R
$$

VAZ048-049-060>072-079>083-181500-
CENTRAL AND SOUTH CENTRAL VIRGINIA

CITY           SKY/WX    TMP DP  RH WIND       PRES   REMARKS
RICHMOND       FOG       37  37 100 NE3       30.34R VSB 1/4
CHESTERFIELD*  FOG       37  36  93 CALM      30.35R VSB 1/4
PETERSBURG*    CLOUDY    39  36  87 N6        30.35R
HANOVER        CLOUDY    37  37 100 VRB6      30.36R FOG
TAPPAHANNOCK*  FAIR      41  39  92 CALM      30.35R
QUINTON*       FOG       36  36 100 CALM      30.35R VSB 1
CHARLOTTSVILLE FOG       34  33  96 NW3       30.32R VSB<1/4
GORDONSVILLE*  CLOUDY    34  34 100 CALM      30.34R FOG
ORANGE*        FOG       34  34 100 CALM      30.34R VSB 1
LOUISA*        FOG       36  36 100 N6        30.37R VSB 1/4
BUMPASS*       CLOUDY    36  35  95 CALM      30.33R VSB 1/4
FARMVILLE*     CLOUDY    39  39 100 S5        30.31R FOG
CREWE*         PTSUNNY   38  38 100 CALM      30.32R
FORT PICKETT*  PTSUNNY   39  39 100 W5        30.32R
CHASE CITY*    FAIR      40  40 100 CALM      30.31R
CLARKSVILLE*   FAIR      43  43 100 NW3       30.32R
SOUTH HILL*    FAIR      41  41 100 CALM      30.37R
LAWRENCEVILLE* FAIR      42  41  97 CALM      30.31R
EMPORIA*       FAIR      41  41 100 CALM      30.33R
$$

VAZ088>098-181500-
SOUTHEAST VIRGINIA

CITY           SKY/WX    TMP DP  RH WIND       PRES   REMARKS
NORFOLK        FAIR      44  40  85 N6        30.34R
VIRGINIA BEACH FAIR      44  38  79 N12       30.33R
NORFOLK NAVAL  FAIR      45  39  79 N6        30.36R
WEST POINT*    PTSUNNY   38  37  96 NW3       30.37R
SALUDA*        FAIR      39  39 100 CALM      30.33R
NEWPORT NEWS   FAIR      45  38  76 N5        30.34R
LANGLEY AFB    FAIR      44  41  90 N6        30.34R
FORT EUSTIS    FAIR      43  38  84 CALM      30.32R
WILLIAMSBURG*  FAIR      41  39  93 CALM      30.35R
HR EXEC AP*    FAIR      45  42  89 VRB6      30.34R
FRANKLIN*      PTSUNNY   42  40  95 N10       30.34R
US460-WAKEFLD  PTSUNNY   41  40  96 NE3       30.34R
$$

VAZ020-022-025-037-045-181500-
WEST CENTRAL AND SOUTHWEST VIRGINIA

CITY           SKY/WX    TMP DP  RH WIND       PRES   REMARKS
STAUNTON*      FAIR      39  31  75 CALM      30.32R
WAYNESBORO*    FAIR      40  28  64 NW5       30.29R
HOT SPRINGS VA CLOUDY    28  25  88 NW9       30.22R
LYNCHBURG      FAIR      44  36  73 VRB3      30.30R
DANVILLE       FAIR      42  39  89 NW7       30.31R
SOUTH BOSTON*  FAIR      42  40  95 N5        30.32R
MARTINSVILLE   FAIR      41  39  92 N3        30.35R
ROANOKE        FAIR      43  28  55 NW14      30.34R
BLACKSBURG     CLOUDY    40  30  69 W7        30.33R
DUBLIN*        PTSUNNY   41  30  63 N5        30.32R
MARION*        PTSUNNY   38  27  62 NW5G16    30.33R
HILLSVILLE*    FAIR      37  27  67 N10G16    30.27R
RICHLANDS*     CLOUDY    34  30  86 N5        30.32R
WISE*          CLOUDY    34  34 100 N7        30.32R
ABINGDON*      FAIR      40  32  72 CALM      30.33R
$$

MDZ021>025-VAZ099-100-181500-
SOUTHERN MARYLAND AND THE DELMARVA PENINSULA

CITY           SKY/WX    TMP DP  RH WIND       PRES   REMARKS
PATUXENT RIVER FAIR      42  37  82 NW7       30.34R
BAY BRIDGE APT CLOUDY    36  34  93 W5        30.34R
LEONARDTOWN    FAIR      41  36  81 CALM      30.36R
DOVER          FAIR      38  33  80 W8        30.32R
GEORGETOWN     FAIR      42  33  70 NW8G16    30.32R
EASTON         NOT AVBL
CAMBRIDGE      SUNNY     43  36  75 NW6       30.33R
SALISBURY      FAIR      42  37  82 NW7       30.32R
OCEAN CITY     FAIR      42  36  79 N12       30.32R
WALLOPS ISLAND FAIR      45  38  76 NW10      30.33R
ACCOMACK*      FAIR      45  38  78 N10       30.33R
$$

NCZ012>017-030>032-181500-
NORTH CENTRAL AND EASTERN NORTH CAROLINA

CITY           SKY/WX    TMP DP  RH WIND       PRES   REMARKS
ROANOKE RAPIDS FAIR      43  43 100 CALM      30.32R
RALEIGH        FAIR      44  42  93 N5        30.31R
ELIZABETH CITY FAIR      45  43  93 N10       30.33R
AHOSKIE*       FAIR      44  42  93 CALM      30.32R
EDENTON*       FAIR      48  45  87 NE6       30.33R
CURRITUCK*     FAIR      43  41  92 N8        30.33R
KILL DEVIL HLS PTSUNNY  N/A N/A N/A N8        30.31R
MANTEO         PTSUNNY   45  42  89 NE13      30.32R
CAPE HATTERAS  FAIR      53  46  77 VRB6      30.29R
TARBORO*       NOT AVBL
GOLDSBORO      PTSUNNY   49  46  89 N6        30.29R
WASHINGTON     FAIR      49  46  87 N5        30.31R
GREENVILLE     FAIR      46  46 100 N6        30.32R
NEW BERN       CLOUDY    49  47  93 N5        30.31R
WILMINGTON     FAIR      55  51  86 NE7       30.27R
$$

VAZ048-181500-
ELSEWHERE

CITY           SKY/WX    TMP DP  RH WIND       PRES   REMARKS
HARRISBURG PA  PTSUNNY   37  27  67 NW16      30.28R
BALTIMORE      PTSUNNY   32  32 100 W5        30.32R FOG
ANNAPOLIS      CLOUDY    38  36  92 CALM      30.33R FOG
ANDREWS AFB    CLOUDY    33  32  99 CALM      30.34R
PHILADELPHIA   FAIR      36  30  79 W10       30.31R
HENDERSON NC   FAIR      37  37  98 CALM      30.32R FOG
GREENSBORO     FAIR      47  37  68 N5        30.30R
ROCKY MOUNT    FAIR      44  42  93 NW5       30.31R
$$

VAZ100-181500-
MARINE

STATION/POSITION TIME  TEMP    WIND        PRES    WAVE   SWELL
                       AIR SEA DIR/SP/G            HT/PER HT/PER
                 (UTC) (F)     (DEG/KT/KT) (MB)    (FT/S) (FT/S)
BRANDYWINE LGT   1342   39     320/ 10/ 14 1026.4R
CAPE MAY NJ      1342   40 40  320/ 13/ 17 1025.6R
LEWES DE         1342   40 41  320/ 15/ 18 1026.0R
15NM E FENWICK I 1350   41 43  320/ 19/ 23 1026.2R   4/ 5   2/ 8
OCEAN-CITY-INLET 1342   40 40  350/  8/ 10 1027.0R
WACHAPREAGUE VA  1342   45 45   10/  6/ 10 1026.6R
THOMAS POINT MD  1400   37 37  260/  5/  5   N/A
GOOSES REEF MD   1400   40 38  350/  4/  4 1029.5
COVE POINT MD    1342   39     350/  9/ 10 1027.6R
SOLOMONS ISLAND  1342   40 40  290/  4/  6 1027.0R
BISHOPS HEAD MD  1342   42 42  340/  7/ 11 1027.2R
POTOMAC MD       1400   40      90/  8/  8 1026.8
CAMBRIDGE MD     1342   42 43              1027.4R
LEWISETTA VA     1342   40 43  360/  4/  6 1027.1R
RAPPAHANNOCK LGT 1342          350/ 10/ 11 1027.4R
STINGRAY PT      1400   40 42  360/  4/  6 1029.1    1
YORK RVR RNG VA  1342   42     360/  6/  7 1027.6R
YORKTOWN VA      1342   41 44  320/  4/  4 1026.9R
DOMINION TERM VA 1342   43      90/  1/  5 1027.5R
KIPTOPEKE VA     1342      42  350/  6/  8   N/A
CAPE HENRY VA    1342   42     320/  4/  6   N/A
S CRANEY ISL VA  1342   42     360/  5/  6 1027.1R
CAPE HENRY BUOY  1400      43                N/A     3/ 6
1ST LANDING BUOY 1400   41 41  360/  4/  6 1027.5    1/ 4
CAPE CHARLES BUO 1351      42                N/A     3/ 6
64NM E OF VA BCH 1350   46 50  360/ 19/ 21 1026.0R   5/ 6   2/ 8
DUCK PIER NC     1342   42 44   10/  9/ 11 1026.0R
44100 DUCK FRF   1345      45                N/A     4/ 6
44056 DUCK FRF   1400      44                N/A     3/ 6
OREGON INLET NC  1342   45 49   10/ 10/ 15 1026.0R
HATTERAS NC      1342   51 56   10/ 14/ 15 1025.1R
DIAMOND SHLS NC  1350   55 69  350/ 21/ 25 1025.4R   4/ 4   2/ 8
CAPE LOOKOUT NC  1400           10/ 11/ 13 1025.9R
$$



USA.gov is the U.S. government's official web portal to all federal, state and local government web resources and services.